[[{"header":{"parameterUnit":"m.s-1","parameterCategory":1,"la1":30.2991,"la2":30.254,"lo1":-89.0895,"lo2":-89.0444,"dy":0.0017,"dx":0.0017,"nx":28,"ny":28,"refTime":"2025-03-25T21:00:00:Z","depth":0,"parameterNumber":2,"parameterNumberName":"U-component_of_WINDS"},"data":[0,0,0,0,0,0,0,0,0,0,0,0,0,0,0,0,0,0,0,0,0,0,0,0,0,0,0,0,0,0,0,0,0,0,0,0,0,0,0,0,0,0,0,0,0,0,0,0,0,0,0,0,0,0,0,0,0,0,-2.758,-2.758,0,-2.7629,-2.7629,-2.763,-2.7543,-2.754,-2.7537,-2.7534,-2.7586,-2.759,-2.7594,0,0,0,0,0,0,0,0,0,0,0,0,0,-2.7413,-2.7417,-2.758,-2.758,-2.7581,-2.7629,-2.7629,-2.763,-2.7543,-2.754,-2.7536,-2.7533,-2.7585,-2.7589,-2.7594,0,0,0,0,0,0,0,0,0,0,0,0,0,-2.7476,-2.7418,-2.758,-2.7543,-2.7541,-2.7629,-2.763,-2.763,-2.7544,-2.754,-2.7535,-2.7531,-2.7583,-2.7589,-2.7595,-2.7721,0,0,-2.7614,-2.7617,0,0,0,0,0,0,0,0,-2.7473,-2.7482,-2.7548,-2.7546,-2.7543,-2.7575,-2.7589,-2.7661,-2.7545,-2.7543,-2.7534,-2.7529,-2.7586,-2.7592,-2.7611,-2.7723,-2.7726,-2.7614,-2.7618,-2.7621,-2.7622,0,0,0,0,0,0,0,-2.7469,-2.748,-2.7599,-2.7549,-2.7546,-2.7525,-2.753,-2.7603,-2.7589,-2.7543,-2.7537,-2.7544,-2.7584,-2.7605,-2.7611,-2.7726,-2.7614,-2.762,-2.7623,-2.7626,-2.7947,-2.7951,0,0,0,0,0,0,-2.7468,-2.7477,-2.7598,-2.7601,-2.7496,-2.7532,-2.7537,-2.7569,-2.7588,-2.7586,-2.7547,-2.7539,-2.7596,-2.7604,-2.7613,-2.7762,-2.7621,-2.7626,-2.763,-2.7942,-2.7948,-2.7953,0,0,0,0,0,0,-2.7465,-2.748,-2.7596,-2.7537,-2.755,-2.754,-2.7577,-2.7573,-2.7594,-2.7591,-2.7588,-2.7571,-2.7593,-2.7604,-2.7695,-2.7763,-2.7629,-2.7635,-2.7936,-2.7944,-2.795,-2.8062,0,0,0,0,0,0,-2.7461,-2.7479,-2.7526,-2.7539,-2.7554,-2.7677,-2.7581,-2.7577,-2.7604,-2.7594,-2.7613,-2.7611,-2.7591,-2.7686,-2.7701,-2.7769,-2.764,-2.793,-2.794,-2.7948,-2.8052,-2.8072,-2.8089,0,0,0,0,0,-2.7455,-2.7556,-2.7529,-2.7544,-2.7612,-2.7681,-2.7689,-2.7663,-2.761,-2.7658,-2.7656,-2.7611,-2.7753,-2.7696,-2.7712,-2.7783,-2.7926,-2.7937,-2.7947,-2.8044,-2.8068,-2.8089,0,0,0,0,0,0,-2.7552,-2.7557,-2.7527,-2.7635,-2.7658,-2.7666,-2.7725,-2.769,-2.7729,-2.7718,-2.7684,-2.7689,-2.7787,-2.7794,-2.7731,-2.7907,-2.7831,-2.7845,-2.7899,-2.7922,-2.794,-2.7936,-2.7645,0,0,0,0,0,-2.7586,-2.764,-2.7642,-2.7737,-2.775,-2.7736,-2.7765,-2.7743,-2.7766,-2.7775,-2.778,-2.7805,-2.7855,-2.7888,-2.7934,-2.8053,-2.8056,-2.811,-2.8128,-2.8143,-2.8156,-2.8221,-2.8245,-2.7989,-2.7989,-2.7988,0,0,-2.7656,-2.7665,-2.7702,-2.7756,-2.7772,-2.783,-2.7745,-2.781,-2.7853,-2.7785,-2.7871,-2.7876,-2.7901,-2.8007,-2.8054,-2.8016,-2.8228,-2.8157,-2.8169,-2.8174,-2.8235,-2.8259,-2.8281,-2.7996,-2.7995,-2.7994,0,0,-2.7814,-2.7826,-2.7907,-2.7925,-2.7949,-2.794,-2.7959,-2.7973,-2.7974,-2.806,-2.8011,-2.8062,-2.8149,-2.8169,-2.8191,-2.8359,-2.8319,-2.8375,-2.8472,-2.8535,-2.8556,-2.8573,-2.8634,-2.8657,-2.8388,-2.8389,-2.8389,0,-2.7898,-2.7984,-2.7954,-2.8023,-2.8049,-2.799,-2.8072,-2.8091,-2.813,-2.8149,-2.8106,-2.8215,-2.8228,-2.8338,-2.8379,-2.8399,-2.8421,-2.8373,-2.8555,-2.8573,-2.8589,-2.8647,-2.867,-2.8395,-2.8394,-2.8394,-2.8393,0,-2.8087,-2.8147,-2.821,-2.8249,-2.8282,-2.8357,-2.8339,-2.8377,-2.8352,-2.8348,-2.8437,-2.8451,-2.8499,-2.8524,-2.85,-2.8632,-2.8607,-2.856,-2.8483,-2.862,-2.8674,-2.8696,-2.8405,-2.8402,-2.84,-2.8399,0,0,-2.8306,-2.8329,-2.8352,-2.837,-2.8393,-2.844,-2.8513,-2.856,-2.8594,-2.8623,-2.8684,-2.876,-2.8717,-2.8742,-2.8721,-2.8777,-2.891,-2.8723,-2.8723,-2.8758,-2.9057,-2.9093,-2.9119,-2.8884,-2.8888,-2.8891,-2.9056,0,-2.8464,-2.859,-2.8566,-2.8689,-2.8745,-2.8692,-2.8756,-2.8778,-2.8776,-2.8824,-2.8822,-2.8877,-2.8815,-2.883,-2.8883,-2.8883,-2.897,-2.8871,-2.8942,-2.8945,-2.8938,-2.9147,-2.9184,-2.9338,-2.9076,-2.908,-2.9082,0,-2.8664,-2.8701,-2.883,-2.8847,-2.8869,-2.8927,-2.897,-2.9016,-2.904,-2.9035,-2.9064,-2.9033,-2.9107,-2.9029,-2.9132,-2.9065,-2.9093,-2.9098,-2.9103,-2.9109,-2.9022,-2.9159,-2.9386,-2.941,-2.9115,-2.9112,-2.911,0,-2.8812,-2.8894,-2.8982,-2.8999,-2.902,-2.9063,-2.9073,-2.9094,-2.9124,-2.9162,-2.9181,-2.9227,-2.9252,-2.9289,-2.9271,-2.9216,-2.9378,-2.9298,-2.9376,-2.9377,-2.9412,-2.941,-2.9648,-2.943,-2.943,-2.9429,-2.9429,0,-2.899,-2.9072,-2.9049,-2.9104,-2.9194,-2.9166,-2.9257,-2.9261,-2.928,-2.9335,-2.9292,-2.9344,-2.9318,-2.9369,-2.9356,-2.9443,-2.9455,-2.9454,-2.9449,-2.9458,-2.9458,-2.9475,-2.9464,-2.9436,-2.9434,-2.9433,-2.9432,0,-2.9171,-2.9159,-2.9252,-2.9264,-2.927,-2.9336,-2.9347,-2.9398,-2.9394,-2.9464,-2.9479,-2.9472,-2.953,-2.9517,-2.958,-2.9571,-2.9682,-2.9664,-2.9674,-2.967,-2.9749,-2.9742,-3.0007,-3.004,-2.98,-2.9803,-2.9804,0,-2.9285,-2.9347,-2.9367,-2.9401,-2.9415,-2.947,-2.9501,-2.9477,-2.9511,-2.9545,-2.9593,-2.9647,-2.9689,-2.9785,-2.9786,-2.9835,-2.9818,-2.9908,-2.9825,-2.9832,-2.982,-2.9817,-2.9824,-2.9924,-2.9927,-2.9929,-2.9931,0,-2.9491,-2.9482,-2.9529,-2.9574,-2.9613,-2.9647,-2.9678,-2.9708,-2.9686,-2.9728,-2.9787,-2.982,-2.9885,-2.994,-2.9985,-2.9997,-2.9962,-2.9957,-2.9978,-2.9987,-2.9991,-2.9991,-2.9719,-2.9951,-2.9949,-2.9947,-2.9946,-2.9946,-2.9642,-2.9695,-2.9717,-2.9771,-2.9792,-2.9822,-2.9871,-2.9873,-2.9922,-2.9973,-2.9956,-3.0024,-3.0049,-3.0106,-3.0124,-3.0177,-3.0143,-3.0173,-3.0181,-3.0189,-3.0199,-2.9982,-3.0185,-3.0185,-3.0184,-3.0184,-3.0183,0,-2.9845,-2.9858,-2.9908,-2.9952,-2.9995,-2.9958,-2.999,-3.0028,-3.0089,-3.0115,-3.0157,-3.0226,-3.028,-3.0286,-3.0337,-3.0378,-3.0363,-3.0393,-3.0389,-3.0393,-3.0226,-3.0203,-3.0404,-3.0404,-3.0404,-3.0404,-3.0404,-3.0404,-2.9956,-3.0044,-3.0039,-3.0137,-3.0149,-3.0215,-3.0237,-3.0265,-3.0285,-3.0364,-3.0409,-3.0412,-3.0431,-3.0483,-3.0531,-3.0531,-3.0552,-3.0588,-3.0583,-3.0426,-3.0405,-3.0384,-3.0362,-3.0593,-3.0593,-3.0745,-3.0747,-3.0748]},{"header":{"parameterUnit":"m.s-1","parameterCategory":1,"la1":30.2991,"la2":30.254,"lo1":-89.0895,"lo2":-89.0444,"dy":0.0017,"dx":0.0017,"nx":28,"ny":28,"refTime":"2025-03-25T21:00:00:Z","depth":0,"parameterNumber":3,"parameterNumberName":"V-component_of_WINDS"},"data":[0,0,0,0,0,0,0,0,0,0,0,0,0,0,0,0,0,0,0,0,0,0,0,0,0,0,0,0,0,0,0,0,0,0,0,0,0,0,0,0,0,0,0,0,0,0,0,0,0,0,0,0,0,0,0,0,0,0,-0.7146,-0.7145,0,-0.7117,-0.7117,-0.7117,-0.7093,-0.7093,-0.7092,-0.7092,-0.7063,-0.7063,-0.7062,0,0,0,0,0,0,0,0,0,0,0,0,0,-0.7177,-0.7177,-0.7146,-0.7145,-0.7145,-0.7117,-0.7117,-0.7117,-0.7093,-0.7093,-0.7092,-0.7092,-0.7063,-0.7063,-0.7062,0,0,0,0,0,0,0,0,0,0,0,0,0,-0.7158,-0.7177,-0.7146,-0.713,-0.7128,-0.7118,-0.7117,-0.7117,-0.7093,-0.7093,-0.7092,-0.7092,-0.7063,-0.7063,-0.7062,-0.7065,0,0,-0.7059,-0.7059,0,0,0,0,0,0,0,0,-0.7159,-0.7157,-0.7132,-0.7131,-0.7129,-0.7108,-0.7118,-0.7099,-0.7093,-0.7106,-0.7092,-0.7092,-0.7078,-0.7076,-0.7072,-0.7064,-0.7062,-0.7059,-0.7059,-0.7059,-0.7058,0,0,0,0,0,0,0,-0.716,-0.7158,-0.7134,-0.7132,-0.713,-0.7123,-0.712,-0.7114,-0.7095,-0.7105,-0.7103,-0.71,-0.7077,-0.7073,-0.7071,-0.7062,-0.7059,-0.7059,-0.7058,-0.7058,-0.7052,-0.7052,0,0,0,0,0,0,-0.7164,-0.7159,-0.7135,-0.7134,-0.7143,-0.7123,-0.712,-0.7115,-0.7095,-0.7091,-0.7101,-0.7099,-0.7074,-0.7072,-0.707,-0.7071,-0.7059,-0.7058,-0.7057,-0.7052,-0.7052,-0.7053,0,0,0,0,0,0,-0.7165,-0.7162,-0.7136,-0.7146,-0.7142,-0.7123,-0.7118,-0.7115,-0.711,-0.7092,-0.7088,-0.71,-0.7074,-0.7071,-0.7066,-0.707,-0.7057,-0.7057,-0.7051,-0.7052,-0.7052,-0.7073,0,0,0,0,0,0,-0.7166,-0.7163,-0.7164,-0.7146,-0.7142,-0.7134,-0.7119,-0.7115,-0.7109,-0.7107,-0.709,-0.7086,-0.7073,-0.7067,-0.7065,-0.7068,-0.7056,-0.7051,-0.7052,-0.7052,-0.7072,-0.7075,-0.7077,0,0,0,0,0,-0.7167,-0.7172,-0.7165,-0.7162,-0.7143,-0.7134,-0.7131,-0.7116,-0.7109,-0.711,-0.7098,-0.7087,-0.7069,-0.7067,-0.7064,-0.7067,-0.7051,-0.7051,-0.7052,-0.7071,-0.7074,-0.7077,0,0,0,0,0,0,-0.7192,-0.7169,-0.7161,-0.716,-0.7149,-0.713,-0.7131,-0.712,-0.7111,-0.7109,-0.7091,-0.7087,-0.7084,-0.7075,-0.7072,-0.7068,-0.7058,-0.7059,-0.7074,-0.7076,-0.7078,-0.7081,-0.7056,0,0,0,0,0,-0.7197,-0.7191,-0.7172,-0.7173,-0.7168,-0.715,-0.7146,-0.7135,-0.7123,-0.7118,-0.7105,-0.7094,-0.7085,-0.708,-0.7072,-0.7071,-0.7066,-0.7071,-0.7073,-0.7075,-0.7076,-0.7073,-0.7074,-0.7055,-0.7055,-0.7055,0,0,-0.7208,-0.7195,-0.7193,-0.7177,-0.7168,-0.7162,-0.7146,-0.7141,-0.7136,-0.7117,-0.7111,-0.7101,-0.7087,-0.7083,-0.7081,-0.7076,-0.708,-0.7076,-0.7078,-0.7077,-0.7074,-0.7075,-0.7077,-0.7055,-0.7055,-0.7055,0,0,-0.7224,-0.7214,-0.7213,-0.7203,-0.7188,-0.7176,-0.7176,-0.7158,-0.715,-0.7144,-0.7129,-0.7122,-0.7109,-0.7099,-0.7092,-0.7102,-0.7091,-0.71,-0.7111,-0.7108,-0.711,-0.7111,-0.7114,-0.7115,-0.71,-0.71,-0.71,0,-0.724,-0.7231,-0.7214,-0.7209,-0.7202,-0.7184,-0.7182,-0.7173,-0.7156,-0.7151,-0.7146,-0.7127,-0.7116,-0.7109,-0.7111,-0.7107,-0.7105,-0.7102,-0.7111,-0.7112,-0.7113,-0.7115,-0.7116,-0.7102,-0.7101,-0.7101,-0.7101,0,-0.725,-0.7243,-0.7244,-0.7228,-0.7221,-0.7218,-0.7199,-0.7194,-0.7183,-0.7172,-0.7164,-0.715,-0.7138,-0.7135,-0.7125,-0.7126,-0.7123,-0.7114,-0.7105,-0.7116,-0.7118,-0.7119,-0.7103,-0.7103,-0.7102,-0.7102,0,0,-0.7282,-0.7255,-0.7256,-0.7247,-0.7228,-0.7223,-0.7218,-0.7205,-0.7201,-0.7189,-0.7184,-0.7171,-0.7163,-0.7155,-0.7143,-0.7141,-0.7148,-0.7132,-0.7131,-0.7135,-0.7146,-0.7153,-0.7154,-0.714,-0.714,-0.714,-0.7147,0,-0.7296,-0.7286,-0.727,-0.7265,-0.7258,-0.7239,-0.7235,-0.7222,-0.721,-0.7202,-0.7189,-0.718,-0.717,-0.7165,-0.7162,-0.7148,-0.715,-0.7147,-0.7134,-0.7134,-0.7138,-0.7156,-0.7163,-0.717,-0.7148,-0.7148,-0.7148,0,-0.731,-0.7299,-0.7293,-0.7273,-0.727,-0.7266,-0.7252,-0.7245,-0.7229,-0.7221,-0.7211,-0.7198,-0.719,-0.7181,-0.717,-0.7168,-0.7161,-0.7154,-0.7153,-0.7152,-0.7142,-0.7154,-0.7172,-0.7173,-0.7149,-0.7149,-0.7149,0,-0.7333,-0.7317,-0.7311,-0.7304,-0.7281,-0.7278,-0.7268,-0.7253,-0.7245,-0.7233,-0.7228,-0.7215,-0.7207,-0.7197,-0.718,-0.7175,-0.717,-0.716,-0.7162,-0.7163,-0.7162,-0.7163,-0.718,-0.7159,-0.7159,-0.7159,-0.7159,0,-0.735,-0.7347,-0.7321,-0.7317,-0.7313,-0.7294,-0.729,-0.7278,-0.7264,-0.7257,-0.7239,-0.7233,-0.7211,-0.7202,-0.7188,-0.718,-0.7177,-0.7169,-0.7166,-0.7171,-0.7172,-0.7167,-0.7166,-0.7159,-0.7159,-0.7159,-0.7159,0,-0.7376,-0.7358,-0.735,-0.7328,-0.7322,-0.732,-0.7301,-0.7296,-0.7282,-0.7273,-0.727,-0.7249,-0.7237,-0.7219,-0.7202,-0.7192,-0.7186,-0.718,-0.7191,-0.7189,-0.7192,-0.7192,-0.7207,-0.7207,-0.7186,-0.7186,-0.7186,0,-0.7387,-0.7385,-0.7362,-0.7356,-0.7346,-0.7337,-0.7329,-0.7309,-0.7301,-0.7282,-0.7279,-0.7266,-0.7254,-0.7235,-0.7218,-0.7204,-0.7198,-0.7204,-0.7196,-0.72,-0.7197,-0.7197,-0.7196,-0.7206,-0.7206,-0.7207,-0.7207,0,-0.741,-0.74,-0.739,-0.7376,-0.7367,-0.7355,-0.7342,-0.7338,-0.7315,-0.7307,-0.7294,-0.7285,-0.7266,-0.7252,-0.7236,-0.7224,-0.7211,-0.7209,-0.7209,-0.7214,-0.722,-0.7216,-0.7196,-0.7209,-0.7209,-0.7209,-0.7209,-0.7209,-0.7428,-0.7424,-0.7407,-0.7395,-0.7383,-0.7371,-0.7365,-0.735,-0.7339,-0.7322,-0.7311,-0.7298,-0.7281,-0.7257,-0.7246,-0.7235,-0.723,-0.723,-0.723,-0.723,-0.7231,-0.7222,-0.7232,-0.7232,-0.7232,-0.7232,-0.7232,0,-0.7449,-0.7436,-0.7426,-0.7407,-0.7398,-0.7386,-0.737,-0.7363,-0.7352,-0.7337,-0.7325,-0.7309,-0.7295,-0.7276,-0.726,-0.7255,-0.7249,-0.7252,-0.7252,-0.7249,-0.7237,-0.7239,-0.7257,-0.7257,-0.7257,-0.7257,-0.7257,-0.7257,-0.7458,-0.7451,-0.7439,-0.7424,-0.7412,-0.7399,-0.7391,-0.7379,-0.7367,-0.735,-0.7338,-0.7325,-0.7308,-0.7291,-0.7277,-0.7271,-0.7266,-0.7271,-0.7264,-0.7253,-0.7251,-0.7248,-0.725,-0.727,-0.727,-0.7276,-0.7277,-0.7277]}]]